Location: Newark
(34.0429°S, 151.2068°E)
Time: 20:53:25
(UTC+00:00)

ISS - Visible Passes

Search period start: 09 April 2020 00:00
Search period end: 19 April 2020 00:00
Orbit: 418 x 423 km, 51.6° (Epoch: 10 April)

Date Brightness Start Highest point End Pass type
(mag) Time Alt. Az. Time Alt. Az. Time Alt. Az.
10 Apr -1.9 19:06:36 10° SSW 19:09:41 29° SE 19:12:44 10° E visible
11 Apr -1.4 18:21:48 18° SSE 18:22:23 19° SSE 18:24:56 10° E visible
12 Apr -3.8 19:10:09 22° SW 19:12:14 83° NW 19:15:39 10° NE visible
13 Apr -2.7 18:25:37 45° ESE 18:25:37 45° ESE 18:28:24 10° ENE visible
14 Apr -2.3 19:14:13 22° WNW 19:14:29 22° NW 19:17:11 10° N visible
15 Apr -1.3 18:29:52 15° NNE 18:29:52 15° NNE 18:30:38 10° NNE visible
17 Apr -2.1 08:41:33 10° N 08:43:34 20° NE 08:43:34 20° NE visible
18 Apr -1.5 07:55:52 10° NNE 07:57:08 12° NE 07:58:25 10° ENE visible
18 Apr -1.7 09:30:15 10° WNW 09:32:02 27° WNW 09:32:02 27° WNW visible
